Elizabeth City Weather Center

Moon Phase Calendar



Online Cameras

 


      

Current Conditions in Elizabeth City
11/28/2021 4:37:40 AM

42°F
Feels Like 38
Clear
Humidity
61%
Pressure
29.97"
Wind
6.9 mph (SSW)
Dew Point
30°F
UV Index
0/10 (Low)
Visibility
6 mi

Hourly Forecast

Date & Time Sun, Nov 28
4:00 AM
Sun, Nov 28
5:00 AM
Sun, Nov 28
6:00 AM
Sun, Nov 28
7:00 AM
Sun, Nov 28
8:00 AM
Sun, Nov 28
9:00 AM
Sun, Nov 28
10:00 AM
Sun, Nov 28
11:00 AM
Sun, Nov 28
12:00 PM
Sun, Nov 28
1:00 PM
Sun, Nov 28
2:00 PM
Sun, Nov 28
3:00 PM
Sun, Nov 28
4:00 PM
Sun, Nov 28
5:00 PM
Sun, Nov 28
6:00 PM
Sun, Nov 28
7:00 PM
Sun, Nov 28
8:00 PM
Sun, Nov 28
9:00 PM
Sun, Nov 28
10:00 PM
Sun, Nov 28
11:00 PM
Mon, Nov 29
12:00 AM
Mon, Nov 29
1:00 AM
Mon, Nov 29
2:00 AM
Mon, Nov 29
3:00 AM
Mon, Nov 29
4:00 AM
Mon, Nov 29
5:00 AM
Mon, Nov 29
6:00 AM
Mon, Nov 29
7:00 AM
Mon, Nov 29
8:00 AM
Mon, Nov 29
9:00 AM
Mon, Nov 29
10:00 AM
Mon, Nov 29
11:00 AM
Mon, Nov 29
12:00 PM
Mon, Nov 29
1:00 PM
Mon, Nov 29
2:00 PM
Mon, Nov 29
3:00 PM
Mon, Nov 29
4:00 PM
Mon, Nov 29
5:00 PM
Mon, Nov 29
6:00 PM
Mon, Nov 29
7:00 PM
Mon, Nov 29
8:00 PM
Mon, Nov 29
9:00 PM
Mon, Nov 29
10:00 PM
Mon, Nov 29
11:00 PM
Tue, Nov 30
12:00 AM
Tue, Nov 30
1:00 AM
Tue, Nov 30
2:00 AM
Tue, Nov 30
3:00 AM
Condition
Clouds

Clear

Clouds

Clouds

Clouds

Clouds

Clouds

Clouds

Clouds

Clouds

Clouds

Clouds

Clouds

Clouds

Clouds

Clouds

Clouds

Clouds

Clouds

Clouds

Clouds

Clouds

Clouds

Clouds

Clouds

Clouds

Clouds

Clouds

Clear

Clouds

Clouds

Clouds

Clouds

Clouds

Clear

Clear

Clear

Clear

Clear

Clear

Clear

Clouds

Clouds

Clouds

Clear

Clear

Clouds

Clouds
Temperature 42°F42°F42°F42°F43°F46°F51°F54°F57°F59°F59°F59°F55°F51°F50°F49°F48°F47°F47°F47°F47°F46°F44°F42°F41°F39°F38°F37°F38°F41°F42°F44°F45°F46°F47°F47°F46°F41°F39°F38°F38°F37°F37°F36°F36°F36°F35°F35°F
Feels Like 37°F37°F37°F36°F38°F41°F48°F51°F54°F56°F56°F56°F53°F48°F47°F46°F45°F44°F43°F43°F42°F40°F39°F37°F35°F33°F31°F30°F32°F33°F35°F37°F40°F41°F42°F42°F41°F37°F36°F35°F35°F34°F37°F36°F34°F32°F32°F31°F
Cloudiness 19%1%19%38%60%80%90%70%58%57%100%100%100%100%100%100%100%100%100%100%100%100%100%99%66%49%41%36%7%32%23%17%14%12%0%0%0%0%0%0%5%12%12%11%9%9%53%63%
Visibility 6 mi6 mi6 mi6 mi6 mi6 mi6 mi6 mi6 mi6 mi6 mi6 mi6 mi6 mi6 mi6 mi6 mi6 mi6 mi6 mi6 mi6 mi6 mi6 mi6 mi6 mi6 mi6 mi6 mi6 mi6 mi6 mi6 mi6 mi6 mi6 mi6 mi6 mi6 mi6 mi6 mi6 mi6 mi6 mi6 mi6 mi6 mi6 mi
Precipitation 0%0%0%0%0%0%0%0%0%0%0%0%0%0%0%0%0%0%0%0%0%0%0%0%0%0%0%0%0%0%0%0%0%0%0%0%0%0%0%0%0%0%0%0%0%0%0%0%
Humidity 60%61%60%59%58%53%47%43%39%37%37%41%48%55%56%58%60%61%63%63%61%62%71%78%75%74%74%74%61%43%39%39%37%36%35%35%39%45%49%51%52%53%54%54%54%54%55%58%
Dew Point 29°F30°F29°F29°F29°F30°F31°F32°F32°F32°F33°F35°F36°F35°F35°F35°F35°F34°F35°F35°F34°F33°F35°F36°F34°F32°F31°F29°F26°F20°F19°F21°F21°F21°F21°F21°F22°F22°F22°F22°F22°F22°F21°F21°F21°F21°F21°F22°F
Pressure 29.97"29.97"29.97"29.97"29.97"29.97"29.97"29.94"29.91"29.88"29.85"29.85"29.85"29.85"29.88"29.88"29.88"29.88"29.88"29.88"29.88"29.88"29.91"29.94"29.94"29.94"29.97"30"30.03"30.06"30.06"30.06"30.03"30.03"30.03"30.03"30.06"30.06"30.09"30.12"30.12"30.15"30.15"30.15"30.12"30.12"30.12"30.12"
Wind Speed 7.6 mph8.2 mph8.6 mph9.2 mph9.3 mph11.1 mph12.4 mph12.6 mph12.1 mph11.3 mph11.4 mph9.4 mph7.6 mph7 mph6.8 mph7 mph7.3 mph7 mph7.3 mph8.3 mph11.5 mph12 mph9.3 mph9.5 mph8.8 mph10.4 mph9.8 mph8.4 mph10.2 mph13.8 mph13.8 mph12.9 mph12 mph11.3 mph11.5 mph10.8 mph9.4 mph6.4 mph4.7 mph4.4 mph3.9 mph3.9 mph2.3 mph2 mph3.2 mph4.2 mph4.3 mph4.7 mph
Wind
Direction
213°
SSW
214°
SW
214°
SW
214°
SW
216°
SW
225°
SW
232°
SW
231°
SW
234°
SW
236°
SW
234°
SW
230°
SW
231°
SW
230°
SW
239°
WSW
236°
SW
254°
WSW
278°
W
290°
WNW
301°
WNW
319°
NW
327°
NNW
340°
NNW
331°
NNW
327°
NNW
325°
NW
328°
NNW
326°
NW
330°
NNW
332°
NNW
333°
NNW
333°
NNW
332°
NNW
330°
NNW
329°
NNW
333°
NNW
336°
NNW
331°
NNW
323°
NW
305°
NW
299°
WNW
291°
WNW
293°
WNW
240°
WSW
235°
SW
250°
WSW
238°
WSW
232°
SW

Daily Forecast

Date High Low Precip. Humidity
Today
Nov 28

Clouds
59 °F
38 °F
0%
43%
Monday
Nov 29

Clouds
47 °F
37 °F
0%
39%
Tuesday
Nov 30

Clouds
54 °F
35 °F
0%
37%
Wednesday
Dec 1

Clear
59 °F
42 °F
0%
63%
Thursday
Dec 2

Clouds
66 °F
48 °F
0%
52%
Friday
Dec 3

Clear
59 °F
46 °F
0%
58%
Saturday
Dec 4

Clouds
67 °F
47 °F
0%
55%
Sunday
Dec 5

Clouds
70 °F
55 °F
0%
69%
Monday
Dec 6

Clouds
76 °F
62 °F
0%
66%
Tuesday
Dec 7

Rain
53 °F
50 °F
100%
62%
Wednesday
Dec 8

Clouds
68 °F
52 °F
21%
91%
Thursday
Dec 9

Rain
70 °F
54 °F
100%
60%
Friday
Dec 10

Clouds
60 °F
46 °F
0%
55%
Saturday
Dec 11

Clear
48 °F
38 °F
0%
38%
Sunday
Dec 12

Clouds
57 °F
38 °F
0%
62%
Monday
Dec 13

Clouds
70 °F
53 °F
0%
75%

Temperature 8-14 Day Outlook



Precipitation 8-14 Day Outlook




Quick Links
Elizabeth City News
Elizabeth City Photos
Elizabeth City Videos




About Us
Contact Us
Site Map
Search Site
Advertise With Us
   
ElizabethCity.USCoast.info
THE ELIZABETH CITY WEBSITE

Copyright 2021, Coastal Town
Privacy    |    Legal